EA5CEE Weather Reports


time (UTC)temp
F
wind
direction
speed
knots
gust
knots
rain 1hr
in
rain 24hr
in
rain mn
in
humidity
%
barometer
mb
20260507003023 62 20 2.6 5.2 0.00 0.00 0.00 84 1010.2
20260507001520 62 20 3.5 6.1 0.00 0.00 0.00 84 1010.4
20260507000023 62 35 3.5 7.8 0.00 0.00 0.00 85 1010.5
20260506234516 63 21 4.3 7.8 0.00 0.00 0.00 85 1010.7
20260506233014 63 50 3.5 7.8 0.00 0.00 0.00 86 1010.6
20260506231611 63 67 3.5 7.0 0.00 0.00 0.00 87 1010.7
20260506230009 63 46 4.3 6.1 0.00 0.00 0.00 87 1010.8
20260506224509 63 23 2.6 6.1 0.00 0.00 0.00 87 1010.7
20260506223008 63 65 3.5 6.1 0.00 0.00 0.00 87 1010.7
20260506221510 63 68 4.3 7.0 0.00 0.00 0.00 87 1010.7
20260506220007 63 44 2.6 5.2 0.00 0.00 0.00 87 1010.9
20260506214506 63 61 2.6 5.2 0.00 0.00 0.00 86 1011.0
20260506213005 63 68 2.6 5.2 0.00 0.00 0.00 86 1011.3
20260506211505 63 72 3.5 7.0 0.00 0.00 0.00 86 1011.2
20260506210002 63 92 6.1 7.8 0.00 0.00 0.00 86 1011.0
20260506204601 63 49 4.3 6.1 0.00 0.00 0.00 86 1011.0
20260506203059 63 74 5.2 7.0 0.00 0.00 0.00 87 1010.8
20260506201600 63 63 6.1 8.7 0.00 0.00 0.00 87 1010.7
20260506200057 63 63 6.1 9.6 0.00 0.00 0.00 86 1010.5
20260506194557 63 49 6.1 9.6 0.00 0.00 0.00 86 1010.2
20260506193058 63 62 7.8 9.6 0.00 0.00 0.00 86 1010.1
20260506191601 63 66 8.7 12.2 0.00 0.00 0.00 86 1009.8
20260506190054 63 51 8.7 11.3 0.00 0.00 0.00 85 1009.8
20260506184557 63 75 8.7 11.3 0.00 0.00 0.00 85 1009.7
20260506183102 63 61 7.8 11.3 0.00 0.00 0.00 85 1009.5
20260506181603 64 79 10.4 12.2 0.00 0.00 0.00 84 1009.6
20260506180049 64 58 9.6 13.0 0.00 0.00 0.00 85 1009.4
20260506174550 64 76 11.3 14.8 0.00 0.00 0.00 84 1009.6
20260506173116 64 59 10.4 13.9 0.00 0.00 0.00 85 1009.4
20260506171547 64 49 11.3 15.6 0.00 0.00 0.00 85 1009.5
20260506170103 65 68 11.3 14.8 0.00 0.00 0.00 84 1009.3
20260506164546 65 61 11.3 15.6 0.00 0.00 0.00 83 1009.3
20260506163054 65 79 11.3 16.5 0.00 0.00 0.00 82 1009.2
20260506161546 65 56 12.2 16.5 0.00 0.00 0.00 83 1009.3
20260506160045 65 63 13.0 17.4 0.00 0.00 0.00 83 1009.2
20260506154600 65 45 13.0 16.5 0.00 0.00 0.00 82 1009.2
20260506153040 65 58 13.9 17.4 0.00 0.00 0.00 82 1009.3
20260506151539 65 70 14.8 18.2 0.00 0.00 0.00 81 1009.3
20260506150038 65 51 13.9 17.4 0.00 0.00 0.00 79 1009.4
20260506144543 65 68 14.8 18.2 0.00 0.00 0.00 80 1009.5
20260506143036 65 59 15.6 19.1 0.00 0.00 0.00 77 1009.7
20260506141535 66 71 14.8 17.4 0.00 0.00 0.00 79 1009.7
20260506140037 65 56 13.9 19.1 0.00 0.00 0.00 80 1010.0
20260506134534 65 64 13.9 17.4 0.00 0.00 0.00 81 1009.8
20260506133039 66 50 14.8 18.2 0.00 0.00 0.00 79 1009.9
20260506131534 66 62 13.9 19.1 0.00 0.00 0.00 80 1010.0
20260506130035 66 71 15.6 18.2 0.00 0.00 0.00 81 1010.2
20260506124533 66 70 13.9 19.1 0.00 0.00 0.00 82 1010.2
20260506123031 66 53 13.0 19.1 0.00 0.00 0.00 81 1010.2
20260506121531 65 76 14.8 17.4 0.00 0.00 0.00 82 1010.3
20260506120030 65 68 13.9 18.2 0.00 0.00 0.00 82 1010.3
20260506114529 65 54 14.8 17.4 0.00 0.00 0.00 83 1010.4
20260506113028 66 61 15.6 19.1 0.00 0.00 0.00 82 1010.4
20260506111526 66 64 14.8 19.1 0.00 0.00 0.00 80 1010.4
20260506110023 66 51 13.0 18.2 0.00 0.00 0.00 80 1010.6
20260506104541 66 40 13.0 16.5 0.00 0.00 0.00 80 1010.7
20260506103020 66 56 13.0 17.4 0.00 0.00 0.00 80 1010.6
20260506101518 65 61 13.9 16.5 0.00 0.00 0.00 79 1010.6
20260506100015 66 58 12.2 15.6 0.00 0.00 0.00 79 1010.6
20260506094514 66 64 10.4 15.6 0.00 0.00 0.00 80 1010.6
20260506093013 66 80 10.4 16.5 0.00 0.00 0.00 78 1010.5
20260506091509 66 56 13.9 16.5 0.00 0.00 0.00 77 1010.3
20260506090008 66 54 10.4 14.8 0.00 0.00 0.00 76 1010.2
20260506084507 66 56 8.7 12.2 0.00 0.00 0.00 75 1010.2
20260506083009 66 50 7.0 11.3 0.00 0.00 0.00 77 1010.1
20260506081509 65 58 7.8 11.3 0.00 0.00 0.00 76 1010.1
20260506073100 65 41 6.1 8.7 0.00 0.00 0.00 79 1010.1
20260506071622 65 26 4.3 9.6 0.00 0.00 0.00 82 1010.1
20260506061553 62 332 2.6 6.1 0.00 0.00 0.00 85 1010.2
20260506044643 62 75 2.6 4.3 0.00 0.00 0.00 89 1009.2
20260506043049 62 75 2.6 3.5 0.00 0.00 0.00 85 1009.2
20260506041546 61 67 0.9 2.6 0.00 0.00 0.00 81 1009.1
20260506040047 61 63 0.9 2.6 0.00 0.00 0.00 78 1009.1
20260506034539 61 65 0.0 1.7 0.00 0.00 0.00 76 1009.2
20260506033038 62 352 0.9 3.5 0.00 0.00 0.00 72 1009.2
20260506031539 62 267 0.9 4.3 0.00 0.00 0.00 70 1009.2
20260506030034 62 297 0.0 1.7 0.00 0.00 0.00 71 1009.1
20260506024541 62 267 0.9 2.6 0.00 0.00 0.00 72 1008.9
20260506023031 62 65 0.9 1.7 0.00 0.00 0.00 76 1008.9
20260506021543 62 65 0.9 1.7 0.00 0.00 0.00 79 1008.9
20260506020026 62 65 0.0 0.0 0.00 0.00 0.00 82 1009.0
20260506014527 62 65 0.0 0.0 0.00 0.00 0.00 83 1009.0
20260506013024 63 65 0.0 0.0 0.00 0.00 0.00 82 1009.1
20260506011525 62 65 0.0 0.9 0.00 0.00 0.00 85 1009.1
20260506010120 63 65 0.0 0.9 0.00 0.00 0.00 87 1009.1
20260506004518 63 65 0.0 0.9 0.00 0.00 0.00 87 1009.2